Location: Unspecified
(0.0000°N, 0.0000°E)
Time: 10:46:36
(UTC+00:00)

Hubble Space Telescope - Pass Details

Date: 14 February 2018
Orbit: 537 x 541 km, 28.5° (Epoch: 21 February)

Event Time Altitude Azimuth Distance (km) Brightness Sun altitude
Exits shadow 05:15:35 24° 297° (WNW) 1,145 1.8 -14.3°
Maximum altitude 05:16:56 29° 330° (NNW) 1,003 1.8 -13.9°
Drops below altitude 10° 05:20:31 10° 31° (NNE) 1,781 3.6 -13.1°
Sets 05:23:00 0° 43° (NE) 2,671 4.8 -12.5°
